Regional Weather Roundup
Issued by NWS Jackson, KY

Home | Current Version | Previous Version | Graphics & Text | Print | Product List | Glossary On
Versions: 1 2 3 4 5 6 7 8 9 10 11 12 13 14 15 16 17 18 19 20 21 22 23 24 25 26 27 28 29 30 31 32 33 34 35 36 37 38 39 40 41 42 43 44 45 46 47 48 49 50
040
ASUS43 KJKL 241210
RWRJKL

EAST KENTUCKY HOURLY WEATHER ROUNDUP
NATIONAL WEATHER SERVICE JACKSON KY
800 AM EDT TUE APR 24 2018

NOTE: "FAIR" INDICATES FEW OR NO CLOUDS BELOW 12,000 FEET WITH
NO SIGNIFICANT WEATHER AND/OR OBSTRUCTIONS TO VISIBILITY.

* THESE REPORTS ARE NOT UNDER NWS QUALITY CONTROL AND MAY NOT
  REPORT WEATHER SUCH AS PRECIPITATION AND FOG.

KYZ079-080-083-085-087-088-110-112-115-119-120-241300
...EASTERN KENTUCKY...

CITY           SKY/WX    TMP DP  RH WIND       PRES   REMARKS
JACKSON        LGT RAIN  54  48  80 NE3       29.92R
6HR MIN TEMP:  54; 6HR MAX TEMP:  57; 6HR PCP:  0.02;

LONDON         RAIN      52  52 100 CALM      29.91R FOG
6HR MIN TEMP:  52; 6HR MAX TEMP:  54; 6HR PCP:  0.34;

SOMERSET*      LGT RAIN  52  52 100 S3        29.90S
MONTICELLO*    CLOUDY    54  53  97 NW7       29.92R
6HR MIN TEMP:  54; 6HR MAX TEMP:  55;

WILLIAMSBURG*  CLOUDY    52  52 100 CALM      29.91S
MIDDLESBORO*   RAIN      53  53 100 CALM      29.92R
6HR MIN TEMP:  53; 6HR MAX TEMP:  54; 6HR PCP:  0.09;

HARLAN APT*    CLOUDY    55  51  87 CALM      29.90S
PIKE CO APT*   RAIN      55  47  74 E9G16     29.93S
BIG SANDY APT* RAIN      55  49  82 E7        29.94S
6HR MIN TEMP:  54; 6HR MAX TEMP:  58;

MOREHEAD APT*  CLOUDY    52  50  93 NE6       29.96S
ASHLAND*       LGT RAIN  53  50  89 VRB5      29.98S
$$

KYZ035-036-041-042-044-050-067-078-099-241300
...CENTRAL KENTUCKY...

CITY           SKY/WX    TMP DP  RH WIND       PRES   REMARKS
MT STERLING*   PTSUNNY   52  50  93 E6        29.95S
FLEMING/MASON* LGT RAIN  51  51 100 E9        29.97S
DANVILLE*      RAIN      50  50 100 CALM      29.92R
LEXINGTON      LGT RAIN  52  49  89 NE12      29.91F
6HR MIN TEMP:  52; 6HR MAX TEMP:  53; 6HR PCP:  0.27;

FRANKFORT      LGT RAIN  53  49  86 NE7       29.91S
6HR MIN TEMP:  53; 6HR MAX TEMP:  54; 6HR PCP:  0.21;

LOUISVILLE     LGT RAIN  54  52  93 NE6       29.93R FOG
6HR MIN TEMP:  54; 6HR MAX TEMP:  56; 6HR PCP:  0.12;

GLASGOW*       HVY RAIN  54  53  97 NE3       29.90S
BOWLING GREEN  CLOUDY    56  55  97 CALM      29.90S
6HR MIN TEMP:  55; 6HR MAX TEMP:  56;

$$

KYZ091>093-OHZ055-061-077-WVZ005-015-034-035-042-241300
...SOUTHERN OHIO/WEST VIRGINIA...

CITY           SKY/WX    TMP DP  RH WIND       PRES   REMARKS
COVINGTON      LGT RAIN  52  51  97 E8        29.95S
COLUMBUS       LGT RAIN  52  49  89 E15       30.05S
DAYTON         CLOUDY    53  51  93 E17       30.02R
WILMINGTON     LGT RAIN  51  51 100 E12G17    29.99S FOG
HUNTINGTON     CLOUDY    53  48  83 NE8       29.97R
CHARLESTON     CLOUDY    55  48  77 E8        29.98F
PINEVILLE*     CLOUDY    55  47  77 MISG      30.03F
BECKLEY        LGT RAIN  49  46  90 E23G35    29.99F
BLUEFIELD      LGT RAIN  46  44  93 E8G17     30.03S FOG
LOGAN CO APT*  CLOUDY    55  48  76 SE10G22   29.95S
$$

VAZ002-007-008-TNZ017-027-036-066-071-241300
...SOUTHWEST VIRGINIA/EAST TENNESSEE...

CITY           SKY/WX    TMP DP  RH WIND       PRES   REMARKS
WISE*            N/A     52  46  82 SE7       29.94F
JONESVILLE*    CLOUDY    55  50  82 E8        29.93S
ABINGDON*      CLOUDY    54  48  82 E13G20    29.95S
BRISTOL        CLOUDY    57  48  72 NE7       29.92S
MORRISTOWN*    PTSUNNY   55  52  88 E7        29.87R FOG
SEVIERVILLE*   CLOUDY    55  54  94 CALM      29.88R
KNOXVILLE      RAIN      54  54 100 N5        29.88R FOG
LAFOLLETTE*    PTSUNNY   54  54 100 CALM      29.94R FOG
OAK RIDGE      RAIN      54  54 100 E3        29.90R FOG
CROSSVILLE     CLOUDY    53  52  96 CALM      29.89S
NASHVILLE      CLOUDY    58  55  90 NW3       29.90R
$$

...KEY TO REMARKS...
VSB - VISIBILITY IN MILES
WCI - WIND CHILL INDEX
HX  - HEAT INDEX

$$




USA.gov is the U.S. government's official web portal to all federal, state and local government web resources and services.